GFSNW_prec_precacc_276.txt.gz
Total_Precipitation_Accumulation
3.24 2.94 2.85 3.18 3.89 5.29 7.11 7.29 5.89 2.81 2.12 4.80 4.02 1.37 0.17 0.15 0.17 0.27 0.48 0.48 0.60 0.85 0.62 0.70 0.77 0.47 0.51 0.18 0.07 0.13 0.22 1.02 0.81 0.32 0.16 0.21 0.30 0.31 0.49 1.69 1.25 1.33 2.45 2.46
3.80 3.49 3.29 3.58 4.22 5.03 6.68 8.08 5.53 5.49 3.66 3.42 1.90 0.69 0.37 0.33 0.28 0.24 0.44 0.48 0.77 0.86 1.02 1.34 1.31 0.70 0.28 0.12 0.08 0.25 0.38 1.05 0.83 0.73 0.76 0.40 0.30 0.31 0.50 0.84 1.53 2.11 2.60 2.06
4.36 4.29 4.51 4.81 5.31 5.94 6.66 8.13 7.21 8.97 7.83 2.66 0.76 0.77 0.74 0.49 0.24 0.28 0.36 0.59 0.83 0.91 1.09 1.09 1.34 0.73 0.23 0.09 0.10 0.18 0.55 0.73 0.76 1.11 1.07 0.96 0.72 0.49 0.57 1.27 2.38 1.77 1.68 1.38
4.64 5.09 5.64 5.76 5.97 7.05 9.77 9.91 6.09 4.04 4.84 2.67 1.06 0.95 1.12 0.63 0.49 0.55 0.68 1.08 0.65 0.77 1.54 1.06 0.80 0.68 0.39 0.21 0.20 0.23 0.54 0.99 0.94 0.71 0.79 0.72 1.20 1.17 1.18 1.09 0.99 1.63 1.32 0.65
4.10 4.52 5.53 6.03 5.85 7.26 12.89 10.35 4.20 2.30 1.48 1.10 1.68 1.91 1.32 0.59 0.59 1.00 1.06 0.59 0.31 0.54 0.85 0.79 0.79 0.83 0.93 0.79 0.35 0.37 0.53 0.86 0.96 1.54 0.90 0.44 0.96 1.10 0.92 0.63 0.73 0.81 0.57 0.61
3.55 3.79 4.38 5.76 7.02 9.13 13.05 8.56 3.13 2.43 2.51 1.62 2.03 1.91 0.89 0.74 0.83 1.17 0.69 0.52 0.80 0.67 0.38 0.56 0.77 0.62 0.49 0.54 0.47 0.52 0.70 0.84 1.01 1.16 0.56 0.50 0.95 0.87 0.51 0.32 0.27 0.36 0.43 0.44
3.48 3.74 4.06 4.65 6.26 8.94 8.12 5.08 3.22 4.07 3.39 1.76 1.03 0.69 0.65 0.78 0.74 1.07 0.64 0.52 0.85 0.52 0.33 0.58 0.66 0.41 0.24 0.31 0.28 0.40 0.65 0.73 1.44 1.31 0.81 1.53 1.02 0.40 0.32 0.33 0.33 0.28 0.31 0.32
3.12 3.42 3.44 3.88 4.71 6.49 7.06 4.46 3.31 3.83 3.07 1.33 0.76 0.60 0.67 0.87 1.06 1.10 0.94 0.62 0.58 0.75 1.00 1.31 1.10 0.61 0.43 0.23 0.35 0.43 0.44 0.89 1.82 1.56 1.05 0.67 0.27 0.16 0.25 0.34 0.33 0.36 0.56 0.73
2.73 3.05 3.21 3.03 3.44 4.75 7.04 5.31 3.47 3.70 3.43 1.76 0.63 0.76 0.80 1.11 1.47 1.54 1.00 0.70 0.68 1.00 1.68 1.80 1.48 0.77 0.45 0.37 0.30 0.47 0.72 0.99 1.98 1.75 1.68 0.77 0.22 0.15 0.08 0.15 0.47 0.43 0.78 1.24
2.75 2.73 2.74 2.95 2.99 3.91 5.78 5.86 3.96 5.25 4.91 2.00 0.96 1.07 1.06 1.04 1.41 1.77 1.16 0.99 1.07 1.30 1.85 1.92 0.95 0.59 0.45 0.61 0.44 0.34 0.65 1.32 2.05 1.77 2.45 0.86 0.16 0.19 0.24 0.87 1.10 0.72 0.69 0.86
2.74 2.62 2.43 2.61 3.16 4.18 5.62 5.14 3.95 4.75 4.77 2.34 1.26 1.12 1.07 1.00 1.36 1.93 1.63 1.92 1.70 2.02 2.19 1.67 1.19 0.72 0.44 0.42 0.30 0.39 0.58 1.17 1.26 1.50 2.26 1.24 0.36 0.54 0.98 1.07 0.79 0.56 0.45 0.29
2.72 2.59 2.59 2.70 3.20 4.26 5.79 5.31 3.78 4.29 5.09 3.41 1.51 1.07 1.00 0.95 0.90 1.51 1.95 1.63 1.31 1.35 1.65 1.53 1.26 1.01 0.72 0.53 0.85 0.46 0.88 0.78 1.00 1.07 0.89 0.70 0.63 0.91 0.78 0.74 0.81 0.46 0.31 0.27
2.52 2.89 3.03 3.44 3.35 4.10 6.12 5.02 3.38 6.38 7.00 3.73 1.78 1.25 0.86 0.77 0.83 1.12 1.85 1.28 1.26 1.56 1.57 1.83 1.78 1.36 0.69 0.67 0.58 0.69 0.96 0.88 1.19 1.38 1.12 1.09 1.15 0.67 0.42 0.55 0.56 0.40 0.29 0.28
2.61 2.96 3.64 3.90 4.10 4.40 5.98 5.32 3.66 5.54 5.35 4.19 2.19 1.11 1.02 0.84 0.65 0.73 0.74 0.77 0.89 1.31 1.84 2.26 2.05 1.27 0.67 0.75 0.82 0.93 0.96 1.40 1.73 2.28 1.59 1.27 1.07 0.97 0.78 0.48 0.22 0.24 0.39 0.35
2.90 3.09 3.50 4.37 4.74 5.39 6.06 4.88 3.70 3.56 4.05 4.12 2.20 0.99 0.86 0.85 0.79 0.71 0.89 0.97 1.25 1.65 2.21 2.41 1.42 0.82 0.78 0.67 0.85 0.62 0.29 0.83 1.79 2.21 1.42 1.42 1.11 0.54 0.41 0.39 0.36 0.24 0.12 0.11
3.05 3.17 3.71 4.52 5.54 6.98 8.17 10.38 6.44 3.25 3.60 4.41 3.09 1.80 1.02 0.97 1.11 1.10 1.13 1.23 1.59 2.00 2.15 1.75 1.14 0.65 1.37 1.56 1.05 0.42 0.22 0.29 0.52 1.00 1.17 1.11 0.87 0.51 0.32 0.28 0.14 0.05 0.08 0.16
3.42 3.71 4.34 5.23 6.67 6.61 6.31 5.90 3.61 2.53 3.36 5.15 3.46 2.24 1.11 0.94 1.38 1.69 1.61 1.68 1.86 1.78 1.92 1.40 0.80 0.72 1.76 2.13 1.03 0.50 0.33 0.37 0.52 0.58 0.84 0.65 0.33 0.26 0.12 0.04 0.02 0.03 0.03 0.04
4.04 4.80 5.63 6.74 7.82 7.60 5.24 2.25 1.55 2.09 3.75 3.74 2.97 2.42 1.90 1.43 1.61 2.14 1.98 2.17 2.02 2.09 1.76 1.08 0.70 0.91 1.40 1.37 0.30 0.09 0.15 0.26 0.35 0.39 0.35 0.33 0.20 0.07 0.03 0.02 0.04 0.07 0.10 0.16
4.84 6.19 8.43 10.83 10.36 9.02 4.89 2.97 2.96 2.90 3.86 3.37 1.64 1.44 2.21 1.71 1.65 1.87 2.24 2.33 2.45 1.66 1.19 0.65 1.09 1.30 1.32 0.54 0.10 0.07 0.14 0.19 0.13 0.05 0.09 0.12 0.10 0.08 0.06 0.06 0.10 0.18 0.33 0.30
6.61 9.35 12.97 14.71 8.79 4.15 4.25 6.95 7.67 7.08 4.51 1.90 0.93 0.75 1.79 2.12 2.26 2.08 2.56 2.50 2.14 1.90 0.84 0.83 1.04 0.92 0.66 0.29 0.27 0.31 0.23 0.14 0.07 0.08 0.12 0.15 0.13 0.16 0.19 0.28 0.35 0.41 0.39 0.26
9.35 11.99 10.87 8.32 5.51 4.94 6.74 8.49 7.19 6.08 3.74 1.27 0.55 0.60 1.43 1.88 2.14 1.94 1.86 2.27 2.00 1.75 1.70 1.44 1.40 1.26 1.33 0.45 0.26 0.12 0.07 0.07 0.09 0.13 0.22 0.24 0.27 0.44 0.52 0.43 0.32 0.26 0.21 0.23
6.78 6.52 7.14 7.94 6.55 6.95 7.77 5.56 3.63 2.07 1.35 0.49 0.35 0.48 1.00 1.91 2.12 2.33 2.03 2.05 2.06 1.49 1.56 1.95 1.38 1.05 0.44 0.20 0.20 0.26 0.23 0.18 0.13 0.16 0.30 0.38 0.43 0.42 0.35 0.29 0.30 0.33 0.35 0.41
4.26 4.95 6.73 6.83 6.40 5.82 4.34 2.70 1.81 0.97 0.93 0.53 0.69 0.85 1.16 1.70 2.18 2.53 1.65 1.88 1.96 1.44 1.78 1.31 1.05 0.96 0.66 0.73 1.03 0.96 0.62 0.35 0.32 0.26 0.25 0.26 0.23 0.21 0.28 0.31 0.35 0.33 0.39 0.52
4.98 5.48 5.47 4.43 3.88 2.34 1.52 0.94 0.82 0.83 0.63 0.49 0.86 0.64 0.80 1.03 1.56 1.99 1.76 1.72 1.52 1.76 1.05 1.28 1.48 1.09 0.90 0.60 0.50 0.43 0.47 0.49 0.51 0.55 0.52 0.49 0.47 0.53 0.59 0.66 0.77 0.72 0.90 1.15
3.33 2.69 2.60 1.89 1.71 1.19 1.00 0.79 0.69 0.61 0.60 0.78 1.23 1.39 1.40 1.50 1.62 1.38 1.20 1.23 1.02 0.83 1.25 1.54 1.09 0.92 0.76 0.63 0.58 0.61 0.68 0.70 0.68 0.69 0.66 0.74 0.75 0.69 0.89 1.08 0.99 0.80 0.81 0.82
1.63 1.41 1.41 1.16 1.05 1.03 0.91 0.91 0.91 0.88 1.06 1.39 1.87 2.07 1.77 1.64 1.04 0.85 0.71 0.68 0.85 1.26 1.15 0.80 0.68 0.65 0.65 0.69 0.74 0.86 0.84 0.73 0.68 0.67 0.62 0.62 0.63 0.57 0.64 0.79 0.79 0.70 0.59 0.61
1.36 1.28 1.10 1.02 0.95 1.00 1.00 0.90 0.86 0.89 1.10 1.45 1.57 1.34 1.12 0.99 0.91 0.83 0.99 1.45 1.62 1.12 0.92 0.87 0.73 0.76 0.82 0.82 0.83 0.86 0.82 0.74 0.67 0.62 0.59 0.61 0.61 0.45 0.31 0.42 0.60 0.47 0.47 0.44

GFSNW_prec_precacc_279.txt.gz
Total_Precipitation_Accumulation
3.24 2.95 2.87 3.20 3.93 5.43 7.42 7.82 6.63 3.18 2.26 5.27 4.47 1.66 0.20 0.15 0.17 0.27 0.48 0.48 0.60 0.85 0.62 0.70 0.77 0.47 0.51 0.18 0.07 0.13 0.22 1.02 0.81 0.32 0.16 0.21 0.30 0.31 0.49 1.69 1.25 1.33 2.46 2.46
3.80 3.50 3.32 3.62 4.26 5.19 7.08 8.77 6.19 6.06 3.92 4.06 2.41 0.86 0.38 0.33 0.28 0.24 0.44 0.48 0.77 0.86 1.02 1.34 1.31 0.70 0.28 0.12 0.08 0.25 0.38 1.05 0.84 0.74 0.76 0.40 0.30 0.31 0.50 0.84 1.53 2.11 2.61 2.06
4.36 4.30 4.55 4.89 5.40 6.06 7.17 8.88 7.98 9.86 8.48 3.11 1.08 0.87 0.76 0.49 0.24 0.28 0.36 0.59 0.83 0.91 1.10 1.10 1.35 0.76 0.23 0.09 0.10 0.18 0.55 0.73 0.77 1.13 1.09 0.96 0.72 0.49 0.57 1.27 2.38 1.77 1.69 1.38
4.65 5.10 5.66 5.83 6.11 7.22 10.36 10.75 6.94 4.72 5.56 3.15 1.45 1.03 1.15 0.63 0.49 0.55 0.68 1.08 0.65 0.77 1.55 1.10 0.88 0.72 0.40 0.21 0.20 0.23 0.54 0.99 0.94 0.71 0.81 0.73 1.20 1.17 1.18 1.09 1.00 1.63 1.33 0.67
4.11 4.52 5.55 6.09 6.01 7.66 13.66 11.13 4.93 2.81 1.76 1.25 1.85 2.07 1.40 0.60 0.59 1.00 1.06 0.59 0.31 0.54 0.85 0.80 0.83 0.91 0.94 0.79 0.35 0.37 0.53 0.86 0.96 1.55 0.90 0.44 0.97 1.10 0.93 0.63 0.73 0.81 0.57 0.61
3.55 3.80 4.40 5.80 7.16 9.65 13.85 9.32 3.72 2.78 2.77 1.78 2.17 2.05 0.97 0.75 0.84 1.17 0.69 0.52 0.80 0.67 0.38 0.56 0.77 0.63 0.51 0.56 0.47 0.52 0.70 0.84 1.02 1.19 0.58 0.51 0.96 0.87 0.51 0.33 0.27 0.36 0.43 0.44
3.48 3.75 4.11 4.69 6.39 9.34 8.84 5.69 3.86 4.44 3.80 2.03 1.26 0.77 0.68 0.79 0.74 1.07 0.64 0.52 0.86 0.53 0.33 0.58 0.66 0.41 0.24 0.33 0.28 0.41 0.65 0.74 1.46 1.31 0.84 1.57 1.02 0.40 0.32 0.33 0.33 0.28 0.31 0.32
3.12 3.43 3.49 3.96 4.85 6.81 7.57 5.08 3.86 4.35 3.34 1.65 0.90 0.66 0.71 0.90 1.08 1.11 0.95 0.62 0.58 0.76 1.00 1.31 1.10 0.61 0.43 0.24 0.38 0.44 0.45 0.91 1.84 1.57 1.05 0.67 0.27 0.16 0.25 0.34 0.33 0.36 0.56 0.73
2.73 3.06 3.23 3.09 3.58 4.98 7.37 5.69 4.11 4.21 3.72 1.94 0.74 0.85 0.92 1.18 1.49 1.59 1.09 0.75 0.70 1.01 1.68 1.80 1.48 0.77 0.45 0.38 0.30 0.47 0.72 0.99 1.98 1.75 1.68 0.77 0.22 0.15 0.08 0.15 0.47 0.43 0.78 1.24
2.75 2.74 2.77 2.98 3.06 4.11 6.07 6.10 4.44 5.94 5.27 2.13 1.03 1.17 1.19 1.11 1.43 1.83 1.26 1.11 1.12 1.35 1.87 1.93 0.95 0.59 0.45 0.61 0.44 0.34 0.65 1.32 2.05 1.77 2.45 0.86 0.16 0.19 0.24 0.87 1.10 0.72 0.69 0.86
2.74 2.62 2.44 2.63 3.19 4.30 5.88 5.30 4.29 5.24 5.11 2.48 1.38 1.27 1.17 1.05 1.40 2.04 1.75 2.07 1.85 2.10 2.21 1.68 1.19 0.72 0.44 0.42 0.30 0.39 0.58 1.17 1.26 1.50 2.26 1.24 0.36 0.54 0.98 1.07 0.79 0.56 0.45 0.29
2.72 2.60 2.63 2.75 3.23 4.35 6.02 5.48 3.97 4.60 5.29 3.57 1.59 1.21 1.17 1.06 0.93 1.56 2.03 1.71 1.42 1.39 1.67 1.53 1.26 1.01 0.72 0.53 0.85 0.46 0.88 0.78 1.00 1.07 0.89 0.70 0.63 0.91 0.78 0.74 0.81 0.46 0.31 0.27
2.52 2.90 3.07 3.49 3.39 4.22 6.30 5.16 3.58 6.67 7.25 3.83 1.81 1.27 1.03 0.98 1.06 1.20 1.95 1.44 1.33 1.60 1.58 1.84 1.78 1.36 0.69 0.67 0.58 0.69 0.96 0.88 1.19 1.38 1.12 1.09 1.15 0.67 0.42 0.55 0.56 0.40 0.29 0.28
2.62 2.99 3.69 3.93 4.16 4.55 6.17 5.45 3.79 5.91 5.53 4.27 2.21 1.12 1.04 0.99 0.92 1.05 0.88 0.87 0.97 1.37 1.91 2.34 2.09 1.27 0.67 0.75 0.82 0.93 0.96 1.40 1.73 2.28 1.59 1.27 1.07 0.97 0.78 0.48 0.22 0.24 0.39 0.35
2.92 3.13 3.56 4.40 4.77 5.52 6.32 5.09 3.87 3.81 4.33 4.19 2.21 0.99 0.86 0.88 0.99 0.91 1.11 1.13 1.40 1.88 2.49 2.61 1.50 0.83 0.78 0.67 0.85 0.62 0.29 0.83 1.79 2.21 1.42 1.42 1.11 0.54 0.41 0.39 0.36 0.24 0.12 0.11
3.06 3.23 3.79 4.56 5.56 7.10 8.44 10.70 6.72 3.48 3.73 4.53 3.13 1.81 1.02 0.98 1.17 1.30 1.36 1.41 1.76 2.26 2.46 1.99 1.24 0.69 1.38 1.56 1.05 0.42 0.22 0.29 0.52 1.00 1.17 1.11 0.87 0.51 0.32 0.28 0.14 0.05 0.08 0.16
3.42 3.75 4.42 5.26 6.69 6.74 6.55 6.25 4.12 3.02 3.52 5.24 3.54 2.27 1.14 0.97 1.45 1.76 1.78 2.05 2.08 1.97 2.17 1.62 0.98 0.80 1.78 2.13 1.03 0.50 0.33 0.37 0.52 0.58 0.84 0.65 0.33 0.26 0.12 0.04 0.02 0.03 0.03 0.04
4.05 4.82 5.66 6.75 7.86 7.69 5.33 2.36 1.81 2.48 4.01 3.89 3.02 2.49 2.02 1.57 1.77 2.29 2.07 2.37 2.27 2.24 1.90 1.19 0.76 0.93 1.40 1.37 0.30 0.09 0.15 0.26 0.35 0.39 0.35 0.33 0.20 0.07 0.03 0.02 0.04 0.07 0.10 0.16
4.84 6.21 8.45 10.84 10.39 9.06 4.91 3.05 3.26 3.38 4.24 3.57 1.67 1.46 2.30 1.85 1.83 2.01 2.39 2.47 2.64 1.82 1.27 0.69 1.10 1.31 1.32 0.54 0.10 0.07 0.14 0.19 0.13 0.05 0.09 0.12 0.10 0.08 0.06 0.06 0.10 0.18 0.33 0.30
6.63 9.38 12.98 14.72 8.79 4.17 4.31 7.12 8.07 7.46 4.79 2.09 0.94 0.75 1.80 2.17 2.35 2.24 2.75 2.64 2.25 1.99 0.87 0.84 1.04 0.92 0.66 0.29 0.27 0.31 0.23 0.14 0.07 0.08 0.12 0.15 0.13 0.16 0.19 0.28 0.35 0.41 0.39 0.26
9.38 12.00 10.87 8.33 5.56 5.01 6.88 8.74 7.53 6.42 3.95 1.40 0.56 0.60 1.43 1.88 2.15 2.02 1.95 2.35 2.06 1.78 1.72 1.44 1.40 1.26 1.33 0.45 0.26 0.12 0.07 0.07 0.09 0.13 0.22 0.24 0.27 0.44 0.52 0.43 0.32 0.26 0.21 0.23
6.79 6.53 7.15 7.98 6.67 7.10 8.00 5.80 3.86 2.30 1.53 0.53 0.36 0.48 1.00 1.91 2.12 2.35 2.09 2.09 2.08 1.50 1.56 1.95 1.38 1.05 0.44 0.20 0.20 0.26 0.23 0.18 0.13 0.16 0.30 0.38 0.43 0.42 0.35 0.29 0.30 0.33 0.35 0.41
4.30 5.01 6.77 6.94 6.55 6.00 4.51 2.84 1.93 1.06 1.02 0.53 0.69 0.85 1.16 1.70 2.18 2.54 1.66 1.89 1.97 1.44 1.78 1.31 1.05 0.96 0.66 0.73 1.03 0.96 0.62 0.35 0.32 0.26 0.25 0.26 0.23 0.21 0.28 0.31 0.35 0.33 0.39 0.52
5.05 5.60 5.55 4.51 3.98 2.39 1.56 0.95 0.82 0.83 0.63 0.49 0.86 0.64 0.80 1.03 1.56 1.99 1.76 1.72 1.52 1.76 1.05 1.28 1.48 1.09 0.90 0.60 0.50 0.43 0.47 0.49 0.51 0.55 0.52 0.49 0.47 0.53 0.59 0.66 0.77 0.72 0.90 1.15
3.43 2.77 2.63 1.91 1.73 1.19 1.00 0.80 0.70 0.62 0.60 0.78 1.23 1.39 1.40 1.50 1.62 1.38 1.20 1.23 1.02 0.83 1.25 1.54 1.09 0.92 0.76 0.63 0.58 0.61 0.68 0.70 0.68 0.69 0.66 0.74 0.75 0.69 0.89 1.08 0.99 0.80 0.81 0.82
1.75 1.46 1.41 1.16 1.06 1.03 0.91 0.92 0.93 0.89 1.06 1.39 1.87 2.07 1.77 1.64 1.04 0.85 0.71 0.68 0.85 1.26 1.15 0.80 0.68 0.65 0.65 0.69 0.74 0.86 0.84 0.73 0.68 0.67 0.62 0.62 0.63 0.57 0.64 0.79 0.79 0.70 0.59 0.61
1.38 1.30 1.10 1.03 0.98 1.01 1.01 0.94 0.87 0.89 1.10 1.45 1.57 1.34 1.12 0.99 0.91 0.83 0.99 1.45 1.62 1.12 0.92 0.87 0.73 0.76 0.82 0.82 0.83 0.86 0.82 0.74 0.67 0.62 0.59 0.61 0.61 0.45 0.31 0.42 0.60 0.47 0.47 0.44

GFSNW_prec_precacc_282.txt.gz
Total_Precipitation_Accumulation
3.24 2.95 2.87 3.20 3.93 5.44 7.44 7.85 6.67 3.19 2.32 5.58 5.01 2.02 0.33 0.18 0.17 0.27 0.48 0.48 0.60 0.85 0.62 0.70 0.77 0.47 0.51 0.18 0.07 0.13 0.22 1.02 0.81 0.32 0.16 0.21 0.30 0.31 0.49 1.69 1.25 1.33 2.46 2.47
3.80 3.50 3.32 3.62 4.27 5.21 7.11 8.86 6.24 6.08 4.04 4.37 2.78 1.28 0.57 0.36 0.29 0.24 0.44 0.48 0.77 0.86 1.02 1.34 1.31 0.70 0.28 0.12 0.08 0.25 0.38 1.05 0.84 0.74 0.76 0.40 0.30 0.31 0.50 0.84 1.53 2.11 2.61 2.07
4.36 4.30 4.55 4.89 5.42 6.09 7.29 9.13 8.14 9.92 8.61 3.35 1.37 1.15 1.04 0.62 0.25 0.28 0.36 0.59 0.83 0.91 1.10 1.10 1.35 0.76 0.23 0.09 0.10 0.18 0.55 0.73 0.77 1.13 1.09 0.96 0.72 0.49 0.57 1.27 2.38 1.77 1.69 1.38
4.65 5.10 5.66 5.84 6.12 7.25 10.53 11.12 7.19 4.83 5.73 3.33 1.77 1.41 1.37 0.75 0.54 0.56 0.68 1.08 0.65 0.77 1.55 1.10 0.88 0.72 0.40 0.21 0.20 0.23 0.54 0.99 0.94 0.71 0.81 0.73 1.20 1.17 1.18 1.09 1.00 1.63 1.33 0.68
4.11 4.53 5.56 6.09 6.03 7.70 13.90 11.53 5.10 2.92 1.95 1.45 2.03 2.40 1.85 0.78 0.63 1.02 1.07 0.59 0.31 0.54 0.85 0.80 0.83 0.93 0.94 0.79 0.35 0.37 0.53 0.86 0.96 1.55 0.90 0.44 0.97 1.10 0.93 0.63 0.73 0.81 0.58 0.61
3.55 3.80 4.40 5.81 7.18 9.75 14.15 9.56 3.82 2.87 2.99 2.01 2.50 2.21 1.23 1.07 0.89 1.19 0.70 0.52 0.80 0.67 0.38 0.56 0.77 0.65 0.53 0.56 0.48 0.52 0.70 0.84 1.02 1.19 0.58 0.51 0.96 0.87 0.51 0.33 0.27 0.36 0.43 0.44
3.49 3.75 4.12 4.70 6.41 9.44 9.05 5.80 4.08 4.82 4.05 2.22 1.50 0.94 0.74 0.84 0.81 1.10 0.65 0.53 0.86 0.53 0.33 0.59 0.66 0.42 0.26 0.35 0.29 0.41 0.65 0.74 1.46 1.31 0.84 1.58 1.02 0.40 0.32 0.33 0.33 0.28 0.31 0.32
3.13 3.43 3.50 3.97 4.86 6.88 7.81 5.20 4.09 4.85 3.62 1.78 1.15 0.81 0.76 0.93 1.09 1.12 0.96 0.63 0.59 0.76 1.03 1.41 1.22 0.66 0.46 0.27 0.42 0.46 0.46 0.91 1.84 1.57 1.05 0.67 0.27 0.16 0.25 0.34 0.33 0.36 0.56 0.73
2.73 3.06 3.24 3.09 3.58 5.02 7.48 5.79 4.34 4.59 4.10 2.06 0.83 1.06 1.14 1.31 1.61 1.64 1.13 0.78 0.73 1.06 1.77 1.94 1.69 0.94 0.49 0.38 0.33 0.49 0.73 1.01 1.99 1.75 1.68 0.77 0.22 0.15 0.08 0.15 0.47 0.43 0.78 1.24
2.75 2.74 2.77 2.98 3.07 4.14 6.13 6.14 4.61 6.34 5.66 2.27 1.12 1.37 1.44 1.46 1.65 1.97 1.34 1.21 1.25 1.50 2.05 2.02 1.00 0.64 0.45 0.61 0.45 0.35 0.65 1.32 2.05 1.77 2.45 0.86 0.16 0.19 0.24 0.87 1.10 0.72 0.69 0.86
2.74 2.62 2.44 2.63 3.21 4.34 5.95 5.35 4.38 5.57 5.44 2.64 1.52 1.44 1.29 1.38 1.76 2.31 1.90 2.24 2.02 2.31 2.42 1.81 1.21 0.72 0.44 0.42 0.30 0.39 0.58 1.17 1.26 1.50 2.26 1.24 0.36 0.54 0.98 1.07 0.79 0.56 0.45 0.29
2.72 2.60 2.63 2.75 3.25 4.37 6.09 5.53 4.02 4.84 5.69 3.88 1.85 1.44 1.33 1.19 1.16 1.82 2.21 1.84 1.58 1.46 1.79 1.61 1.27 1.01 0.72 0.53 0.85 0.46 0.88 0.78 1.00 1.07 0.89 0.70 0.63 0.91 0.78 0.74 0.81 0.46 0.31 0.27
2.52 2.90 3.07 3.50 3.41 4.23 6.36 5.18 3.63 6.98 7.64 4.07 2.11 1.61 1.30 1.14 1.22 1.44 2.28 1.57 1.41 1.65 1.59 1.85 1.78 1.36 0.69 0.67 0.58 0.69 0.96 0.88 1.19 1.38 1.12 1.09 1.15 0.67 0.42 0.55 0.56 0.40 0.29 0.28
2.62 2.99 3.69 3.94 4.18 4.58 6.24 5.49 3.86 6.22 5.96 4.54 2.38 1.24 1.41 1.31 1.21 1.28 1.10 1.03 1.03 1.46 1.96 2.36 2.10 1.28 0.67 0.75 0.82 0.93 0.96 1.40 1.73 2.28 1.59 1.27 1.07 0.97 0.78 0.48 0.22 0.24 0.39 0.35
2.92 3.13 3.57 4.42 4.80 5.55 6.36 5.11 3.92 3.99 4.76 4.48 2.32 1.08 1.02 1.13 1.22 1.19 1.43 1.24 1.44 1.99 2.74 2.86 1.58 0.83 0.79 0.67 0.85 0.62 0.29 0.83 1.79 2.21 1.42 1.42 1.11 0.54 0.41 0.39 0.36 0.24 0.12 0.11
3.06 3.23 3.82 4.60 5.62 7.13 8.46 10.71 6.76 3.67 4.19 4.84 3.24 1.86 1.12 1.09 1.25 1.46 1.84 1.81 1.91 2.34 2.75 2.31 1.39 0.74 1.40 1.59 1.07 0.42 0.22 0.29 0.52 1.00 1.17 1.11 0.87 0.51 0.32 0.28 0.14 0.05 0.08 0.16
3.43 3.76 4.47 5.36 6.77 6.77 6.59 6.28 4.22 3.27 3.85 5.49 3.71 2.31 1.19 1.02 1.49 1.86 2.11 2.56 2.53 2.23 2.40 1.84 1.15 0.90 1.88 2.18 1.03 0.50 0.33 0.37 0.52 0.58 0.84 0.65 0.33 0.26 0.12 0.04 0.02 0.03 0.03 0.04
4.06 4.84 5.68 6.78 7.88 7.71 5.33 2.37 1.93 2.74 4.37 4.11 3.15 2.55 2.06 1.62 1.79 2.38 2.18 2.63 2.66 2.60 2.16 1.32 0.87 1.08 1.55 1.45 0.30 0.09 0.15 0.26 0.35 0.39 0.35 0.33 0.20 0.07 0.03 0.02 0.04 0.07 0.10 0.16
4.86 6.22 8.46 10.84 10.39 9.07 4.91 3.06 3.41 3.74 4.60 3.84 1.77 1.48 2.33 1.89 1.84 2.08 2.47 2.56 2.81 2.09 1.45 0.79 1.20 1.46 1.41 0.56 0.10 0.07 0.14 0.19 0.13 0.05 0.09 0.12 0.10 0.08 0.06 0.06 0.10 0.18 0.33 0.30
6.66 9.41 12.99 14.72 8.79 4.17 4.32 7.18 8.25 7.84 5.07 2.34 1.02 0.75 1.80 2.18 2.36 2.27 2.84 2.74 2.37 2.14 1.03 0.97 1.12 0.96 0.66 0.29 0.27 0.31 0.23 0.14 0.07 0.08 0.12 0.15 0.13 0.16 0.19 0.28 0.35 0.41 0.39 0.26
9.40 12.01 10.88 8.33 5.57 5.03 6.93 8.86 7.71 6.67 4.25 1.60 0.62 0.60 1.43 1.89 2.15 2.03 1.98 2.44 2.16 1.86 1.79 1.49 1.43 1.27 1.33 0.45 0.26 0.12 0.07 0.07 0.09 0.13 0.22 0.24 0.27 0.44 0.52 0.43 0.32 0.26 0.21 0.23
6.80 6.53 7.15 7.99 6.71 7.21 8.13 5.94 4.01 2.42 1.69 0.62 0.38 0.49 1.00 1.92 2.15 2.41 2.15 2.16 2.14 1.53 1.57 1.96 1.38 1.05 0.44 0.20 0.20 0.26 0.23 0.18 0.13 0.16 0.30 0.38 0.43 0.42 0.35 0.29 0.30 0.33 0.35 0.41
4.32 5.02 6.81 6.97 6.63 6.12 4.61 2.94 1.98 1.09 1.07 0.54 0.69 0.86 1.16 1.72 2.26 2.62 1.71 1.97 2.03 1.45 1.80 1.32 1.05 0.96 0.66 0.73 1.03 0.96 0.62 0.35 0.32 0.26 0.25 0.26 0.23 0.21 0.28 0.31 0.35 0.33 0.39 0.52
5.10 5.65 5.59 4.53 4.04 2.41 1.57 0.96 0.82 0.83 0.63 0.49 0.86 0.64 0.80 1.04 1.59 2.02 1.77 1.75 1.54 1.78 1.06 1.28 1.48 1.09 0.90 0.60 0.50 0.43 0.47 0.49 0.51 0.55 0.52 0.49 0.47 0.53 0.59 0.66 0.77 0.72 0.90 1.15
3.46 2.91 2.67 1.91 1.73 1.19 1.00 0.80 0.70 0.62 0.60 0.78 1.23 1.39 1.40 1.50 1.63 1.38 1.20 1.23 1.02 0.83 1.25 1.54 1.09 0.92 0.76 0.63 0.58 0.61 0.68 0.70 0.68 0.69 0.66 0.74 0.75 0.69 0.89 1.08 0.99 0.80 0.81 0.82
1.78 1.57 1.42 1.16 1.06 1.03 0.91 0.92 0.94 0.89 1.07 1.40 1.89 2.07 1.79 1.65 1.04 0.85 0.71 0.68 0.85 1.26 1.15 0.80 0.68 0.65 0.65 0.69 0.74 0.86 0.84 0.73 0.68 0.67 0.62 0.62 0.63 0.57 0.64 0.79 0.79 0.70 0.59 0.61
1.38 1.31 1.10 1.03 0.98 1.01 1.01 0.94 0.88 0.91 1.11 1.47 1.59 1.35 1.12 0.99 0.91 0.83 0.99 1.45 1.62 1.12 0.92 0.87 0.73 0.76 0.82 0.82 0.83 0.86 0.82 0.74 0.67 0.62 0.59 0.61 0.61 0.45 0.31 0.42 0.60 0.47 0.47 0.44

GFSNW_prec_precacc_285.txt.gz
Total_Precipitation_Accumulation
3.24 2.95 2.87 3.20 3.94 5.45 7.45 7.85 6.67 3.19 2.33 5.58 5.01 2.03 0.33 0.18 0.17 0.27 0.48 0.48 0.60 0.85 0.62 0.70 0.77 0.47 0.51 0.18 0.07 0.13 0.22 1.02 0.81 0.32 0.16 0.21 0.30 0.31 0.49 1.69 1.25 1.33 2.46 2.47
3.80 3.50 3.32 3.63 4.28 5.22 7.11 8.86 6.25 6.08 4.04 4.37 2.78 1.28 0.58 0.38 0.30 0.24 0.44 0.48 0.77 0.86 1.02 1.34 1.31 0.70 0.28 0.12 0.08 0.25 0.38 1.05 0.84 0.74 0.76 0.40 0.30 0.31 0.50 0.84 1.53 2.11 2.61 2.07
4.36 4.30 4.55 4.89 5.42 6.10 7.30 9.14 8.14 9.92 8.61 3.35 1.37 1.15 1.05 0.63 0.27 0.28 0.37 0.60 0.83 0.91 1.10 1.10 1.35 0.76 0.23 0.09 0.10 0.18 0.55 0.73 0.77 1.13 1.09 0.96 0.72 0.49 0.57 1.27 2.38 1.77 1.69 1.38
4.66 5.11 5.67 5.84 6.13 7.27 10.57 11.17 7.22 4.84 5.73 3.34 1.78 1.41 1.37 0.78 0.59 0.58 0.68 1.11 0.66 0.77 1.55 1.10 0.88 0.72 0.40 0.21 0.20 0.23 0.54 0.99 0.94 0.71 0.81 0.73 1.20 1.17 1.18 1.09 1.00 1.63 1.33 0.68
4.12 4.53 5.56 6.09 6.03 7.75 13.96 11.59 5.13 2.92 1.96 1.45 2.06 2.47 1.89 0.82 0.67 1.06 1.10 0.61 0.32 0.55 0.85 0.80 0.83 0.93 0.94 0.79 0.35 0.37 0.53 0.86 0.96 1.55 0.90 0.44 0.97 1.10 0.93 0.63 0.73 0.81 0.58 0.61
3.56 3.81 4.41 5.81 7.19 9.80 14.21 9.63 3.86 2.89 3.01 2.01 2.51 2.24 1.27 1.15 1.00 1.23 0.73 0.56 0.82 0.68 0.39 0.56 0.77 0.65 0.55 0.57 0.48 0.55 0.74 0.86 1.02 1.20 0.58 0.52 0.96 0.87 0.51 0.33 0.27 0.36 0.43 0.44
3.49 3.76 4.13 4.71 6.43 9.48 9.08 5.82 4.10 4.91 4.14 2.23 1.51 0.96 0.76 0.89 0.90 1.23 0.70 0.55 0.90 0.56 0.34 0.61 0.68 0.44 0.28 0.39 0.31 0.44 0.67 0.76 1.48 1.32 0.85 1.60 1.02 0.40 0.32 0.33 0.33 0.28 0.31 0.32
3.13 3.43 3.50 3.98 4.87 6.91 7.84 5.24 4.14 4.99 3.72 1.78 1.15 0.82 0.78 0.96 1.16 1.24 1.11 0.70 0.61 0.78 1.07 1.51 1.30 0.72 0.54 0.30 0.44 0.49 0.48 0.94 1.87 1.60 1.06 0.67 0.27 0.16 0.25 0.34 0.33 0.36 0.56 0.73
2.73 3.06 3.24 3.09 3.58 5.04 7.50 5.81 4.40 4.83 4.27 2.08 0.83 1.07 1.16 1.37 1.69 1.73 1.24 0.95 0.90 1.17 1.87 2.14 2.00 1.13 0.55 0.43 0.35 0.56 0.81 1.06 2.03 1.79 1.70 0.78 0.22 0.15 0.08 0.15 0.47 0.43 0.78 1.24
2.75 2.74 2.77 2.98 3.07 4.15 6.15 6.15 4.64 6.48 5.86 2.29 1.12 1.39 1.50 1.51 1.74 2.09 1.43 1.28 1.40 1.91 2.59 2.45 1.37 0.74 0.51 0.65 0.45 0.38 0.73 1.41 2.19 1.86 2.47 0.86 0.16 0.19 0.24 0.87 1.10 0.72 0.69 0.86
2.74 2.62 2.44 2.63 3.21 4.34 5.98 5.37 4.40 5.62 5.53 2.66 1.52 1.49 1.41 1.47 1.87 2.45 1.99 2.35 2.16 2.60 3.05 2.46 1.55 0.92 0.52 0.48 0.33 0.39 0.58 1.21 1.33 1.59 2.29 1.24 0.36 0.54 0.98 1.07 0.79 0.56 0.45 0.29
2.72 2.60 2.63 2.75 3.25 4.37 6.13 5.63 4.08 4.90 5.84 3.97 1.86 1.49 1.45 1.31 1.28 1.94 2.34 1.95 1.76 1.70 2.12 1.99 1.55 1.11 0.82 0.60 0.91 0.51 0.88 0.78 1.01 1.08 0.89 0.70 0.63 0.91 0.78 0.74 0.81 0.46 0.31 0.27
2.52 2.90 3.07 3.50 3.41 4.24 6.40 5.25 3.67 7.13 7.88 4.18 2.13 1.64 1.42 1.29 1.36 1.75 2.67 1.85 1.47 1.78 1.74 1.93 1.84 1.40 0.71 0.72 0.61 0.74 0.98 0.89 1.19 1.38 1.12 1.09 1.15 0.67 0.42 0.55 0.56 0.40 0.29 0.28
2.62 2.99 3.69 3.94 4.18 4.58 6.29 5.60 3.91 6.34 6.15 4.69 2.40 1.25 1.46 1.48 1.37 1.47 1.58 1.68 1.45 1.53 2.06 2.52 2.19 1.31 0.68 0.76 0.83 0.94 0.97 1.41 1.73 2.28 1.59 1.27 1.07 0.97 0.78 0.48 0.22 0.24 0.39 0.35
2.92 3.13 3.57 4.42 4.80 5.57 6.41 5.17 3.96 4.03 4.90 4.64 2.35 1.11 1.09 1.34 1.59 1.49 1.63 1.67 2.18 2.50 2.90 2.99 1.77 0.89 0.80 0.69 0.86 0.62 0.29 0.83 1.79 2.21 1.42 1.42 1.11 0.54 0.41 0.39 0.36 0.24 0.12 0.11
3.06 3.23 3.82 4.60 5.62 7.16 8.56 10.79 6.76 3.67 4.28 5.09 3.35 1.91 1.19 1.28 1.56 2.03 2.31 2.20 2.44 2.94 3.31 2.63 1.53 0.80 1.42 1.60 1.07 0.42 0.22 0.29 0.52 1.00 1.17 1.11 0.87 0.51 0.32 0.28 0.14 0.05 0.08 0.16
3.43 3.76 4.47 5.36 6.79 6.84 6.72 6.35 4.25 3.40 4.09 5.71 3.83 2.38 1.24 1.23 1.83 2.23 2.44 2.92 3.05 2.81 2.84 2.26 1.36 0.99 1.92 2.23 1.05 0.50 0.33 0.38 0.52 0.58 0.84 0.65 0.33 0.26 0.12 0.04 0.02 0.03 0.03 0.04
4.06 4.84 5.68 6.80 7.92 7.76 5.40 2.38 1.94 2.92 4.70 4.36 3.39 2.73 2.15 1.86 2.08 2.74 2.39 2.89 3.03 3.08 2.58 1.50 0.99 1.19 1.70 1.59 0.34 0.09 0.15 0.26 0.35 0.39 0.35 0.33 0.20 0.07 0.03 0.02 0.04 0.07 0.10 0.16
4.86 6.23 8.49 10.88 10.42 9.08 4.92 3.06 3.43 3.83 4.90 4.17 2.01 1.63 2.51 2.01 2.02 2.26 2.61 2.70 2.94 2.26 1.72 1.00 1.25 1.54 1.55 0.63 0.11 0.11 0.16 0.19 0.13 0.05 0.09 0.12 0.10 0.08 0.06 0.06 0.10 0.18 0.33 0.30
6.70 9.46 13.02 14.74 8.79 4.17 4.33 7.22 8.34 8.01 5.29 2.54 1.16 0.85 1.93 2.26 2.39 2.32 2.88 2.84 2.51 2.22 1.13 1.13 1.25 1.04 0.67 0.29 0.27 0.32 0.26 0.16 0.08 0.11 0.13 0.15 0.13 0.16 0.19 0.28 0.35 0.41 0.39 0.26
9.45 12.03 10.89 8.33 5.57 5.08 7.04 8.98 7.85 6.76 4.36 1.67 0.66 0.64 1.54 1.92 2.20 2.06 2.00 2.46 2.25 1.97 1.84 1.53 1.47 1.29 1.34 0.45 0.26 0.12 0.07 0.08 0.10 0.14 0.23 0.24 0.27 0.44 0.52 0.43 0.32 0.26 0.21 0.23
6.81 6.54 7.16 7.99 6.72 7.28 8.32 6.06 4.10 2.49 1.71 0.64 0.41 0.49 1.05 1.94 2.18 2.45 2.18 2.17 2.17 1.59 1.61 1.98 1.39 1.05 0.44 0.20 0.20 0.26 0.23 0.18 0.13 0.16 0.30 0.38 0.43 0.42 0.35 0.29 0.30 0.33 0.35 0.41
4.37 5.07 6.85 7.02 6.66 6.22 4.70 3.00 2.03 1.13 1.07 0.55 0.74 0.94 1.20 1.75 2.32 2.65 1.72 1.98 2.04 1.47 1.82 1.33 1.05 0.96 0.66 0.73 1.03 0.96 0.62 0.35 0.32 0.26 0.25 0.26 0.23 0.21 0.28 0.31 0.35 0.33 0.39 0.52
5.16 5.69 5.62 4.56 4.08 2.43 1.58 0.96 0.83 0.83 0.63 0.50 0.90 0.76 0.83 1.07 1.63 2.06 1.79 1.77 1.55 1.79 1.06 1.28 1.48 1.09 0.90 0.60 0.50 0.43 0.47 0.49 0.51 0.55 0.52 0.49 0.47 0.53 0.59 0.66 0.77 0.72 0.90 1.15
3.59 2.96 2.68 1.91 1.73 1.19 1.01 0.80 0.70 0.62 0.61 0.86 1.28 1.44 1.42 1.51 1.66 1.42 1.23 1.26 1.02 0.83 1.25 1.54 1.09 0.92 0.76 0.63 0.58 0.61 0.68 0.70 0.68 0.69 0.66 0.74 0.75 0.69 0.89 1.08 0.99 0.80 0.81 0.82
1.80 1.61 1.44 1.16 1.06 1.03 0.92 0.92 0.94 0.90 1.10 1.57 2.04 2.11 1.84 1.67 1.04 0.87 0.72 0.68 0.85 1.26 1.15 0.80 0.68 0.65 0.65 0.69 0.74 0.86 0.84 0.73 0.68 0.67 0.62 0.62 0.63 0.57 0.64 0.79 0.79 0.70 0.59 0.61
1.42 1.31 1.10 1.03 0.98 1.01 1.04 0.98 1.04 1.01 1.18 1.59 1.71 1.36 1.15 0.99 0.91 0.83 0.99 1.45 1.62 1.12 0.92 0.87 0.73 0.76 0.82 0.82 0.83 0.86 0.82 0.74 0.67 0.62 0.59 0.61 0.61 0.45 0.31 0.42 0.60 0.47 0.47 0.44

GFSNW_prec_precacc_288.txt.gz
Total_Precipitation_Accumulation
3.25 2.95 2.87 3.20 3.94 5.48 7.46 7.85 6.67 3.19 2.33 5.58 5.01 2.03 0.33 0.18 0.17 0.27 0.48 0.48 0.60 0.85 0.62 0.70 0.77 0.47 0.51 0.18 0.07 0.13 0.22 1.02 0.81 0.32 0.16 0.21 0.30 0.31 0.49 1.69 1.25 1.33 2.46 2.47
3.80 3.50 3.32 3.63 4.28 5.23 7.11 8.86 6.25 6.09 4.05 4.37 2.78 1.28 0.58 0.38 0.30 0.24 0.44 0.48 0.77 0.86 1.02 1.34 1.31 0.70 0.28 0.12 0.08 0.25 0.38 1.05 0.84 0.74 0.76 0.40 0.30 0.31 0.50 0.84 1.53 2.11 2.61 2.07
4.37 4.31 4.56 4.90 5.43 6.12 7.30 9.14 8.14 9.92 8.62 3.35 1.37 1.15 1.05 0.63 0.27 0.28 0.37 0.60 0.84 0.91 1.10 1.10 1.35 0.76 0.23 0.09 0.10 0.18 0.55 0.73 0.77 1.13 1.09 0.96 0.72 0.49 0.57 1.27 2.38 1.77 1.69 1.38
4.67 5.12 5.67 5.86 6.14 7.30 10.58 11.18 7.22 4.84 5.73 3.34 1.78 1.41 1.37 0.78 0.59 0.58 0.68 1.11 0.66 0.78 1.56 1.10 0.88 0.72 0.40 0.21 0.20 0.23 0.54 1.00 0.94 0.71 0.81 0.73 1.20 1.17 1.18 1.09 1.00 1.63 1.33 0.68
4.12 4.54 5.57 6.11 6.06 7.79 13.99 11.60 5.13 2.93 1.96 1.45 2.06 2.47 1.90 0.83 0.67 1.06 1.10 0.61 0.32 0.55 0.85 0.80 0.83 0.93 0.95 0.80 0.36 0.38 0.54 0.87 0.96 1.55 0.90 0.44 0.97 1.10 0.93 0.63 0.73 0.81 0.58 0.61
3.57 3.82 4.41 5.83 7.23 9.84 14.23 9.64 3.86 2.90 3.01 2.02 2.52 2.24 1.27 1.15 1.00 1.23 0.73 0.56 0.82 0.69 0.39 0.56 0.77 0.66 0.55 0.58 0.53 0.58 0.77 0.90 1.06 1.21 0.58 0.54 0.97 0.87 0.51 0.33 0.27 0.36 0.43 0.44
3.50 3.77 4.13 4.73 6.45 9.50 9.09 5.82 4.12 4.95 4.18 2.25 1.51 0.96 0.77 0.89 0.90 1.23 0.70 0.55 0.90 0.56 0.34 0.62 0.70 0.45 0.30 0.41 0.32 0.48 0.72 0.79 1.53 1.34 0.89 1.66 1.03 0.40 0.32 0.33 0.33 0.28 0.31 0.32
3.14 3.44 3.51 4.01 4.90 6.93 7.84 5.25 4.16 5.02 3.75 1.79 1.15 0.82 0.78 0.96 1.16 1.24 1.11 0.70 0.61 0.78 1.08 1.53 1.34 0.77 0.58 0.34 0.46 0.50 0.52 1.01 1.95 1.67 1.11 0.69 0.27 0.16 0.25 0.35 0.33 0.36 0.56 0.73
2.74 3.06 3.24 3.11 3.61 5.07 7.52 5.82 4.43 4.88 4.34 2.10 0.83 1.07 1.16 1.37 1.69 1.73 1.24 0.95 0.90 1.18 1.90 2.24 2.25 1.29 0.62 0.48 0.37 0.57 0.85 1.12 2.13 1.88 1.78 0.81 0.22 0.15 0.08 0.15 0.48 0.43 0.78 1.24
2.76 2.74 2.78 2.99 3.08 4.18 6.18 6.16 4.65 6.55 5.99 2.31 1.13 1.40 1.50 1.51 1.74 2.09 1.44 1.30 1.41 1.95 2.72 2.64 1.55 1.06 0.79 0.77 0.46 0.39 0.76 1.45 2.25 1.93 2.56 0.92 0.16 0.19 0.24 0.88 1.11 0.72 0.69 0.86
2.74 2.62 2.44 2.64 3.21 4.35 6.00 5.37 4.41 5.67 5.62 2.68 1.52 1.49 1.41 1.47 1.87 2.46 2.00 2.40 2.20 2.70 3.31 2.88 1.87 1.07 0.58 0.65 0.46 0.43 0.61 1.24 1.36 1.63 2.40 1.29 0.37 0.54 0.98 1.07 0.79 0.56 0.45 0.29
2.72 2.60 2.63 2.75 3.25 4.38 6.15 5.64 4.08 4.91 5.89 4.01 1.87 1.49 1.45 1.31 1.28 1.94 2.36 2.02 1.84 1.85 2.45 2.34 1.93 1.36 0.91 0.63 0.94 0.54 0.93 0.81 1.03 1.09 0.91 0.71 0.63 0.91 0.78 0.74 0.81 0.46 0.31 0.27
2.53 2.91 3.07 3.50 3.41 4.24 6.41 5.25 3.68 7.18 7.97 4.30 2.19 1.65 1.42 1.29 1.36 1.75 2.71 1.90 1.49 1.83 1.89 2.15 2.11 1.70 0.89 0.82 0.68 0.76 1.00 0.91 1.21 1.39 1.12 1.09 1.15 0.67 0.42 0.55 0.56 0.40 0.29 0.28
2.62 2.99 3.69 3.94 4.18 4.58 6.30 5.61 3.92 6.39 6.27 4.81 2.43 1.25 1.46 1.48 1.37 1.50 1.67 1.79 1.49 1.59 2.13 2.76 2.60 1.66 0.83 0.82 0.89 1.00 1.04 1.48 1.76 2.29 1.59 1.27 1.07 0.97 0.78 0.48 0.22 0.24 0.39 0.35
2.92 3.13 3.57 4.42 4.80 5.57 6.41 5.18 3.96 4.06 5.02 4.83 2.40 1.11 1.09 1.34 1.59 1.51 1.69 1.83 2.35 2.81 3.21 3.34 2.11 1.09 0.93 0.74 0.87 0.64 0.31 0.89 1.91 2.27 1.43 1.43 1.12 0.54 0.41 0.39 0.36 0.24 0.12 0.11
3.06 3.23 3.82 4.61 5.63 7.18 8.59 10.80 6.76 3.67 4.29 5.27 3.48 1.92 1.19 1.28 1.57 2.09 2.50 2.42 2.61 3.28 3.97 3.03 1.67 0.91 1.60 1.76 1.13 0.43 0.22 0.29 0.55 1.06 1.22 1.15 0.89 0.51 0.32 0.28 0.14 0.05 0.08 0.16
3.43 3.76 4.47 5.37 6.79 6.86 6.73 6.36 4.30 3.51 4.31 6.13 4.06 2.40 1.24 1.24 1.87 2.34 2.64 3.32 3.57 3.26 3.44 2.92 1.73 1.11 1.97 2.31 1.08 0.50 0.33 0.38 0.53 0.60 0.86 0.70 0.34 0.26 0.12 0.04 0.02 0.03 0.03 0.04
4.06 4.84 5.69 6.81 7.94 7.79 5.41 2.38 1.94 2.97 5.01 4.67 3.54 2.74 2.15 1.89 2.18 2.91 2.68 3.26 3.51 3.46 2.90 1.85 1.27 1.55 1.96 1.66 0.34 0.09 0.15 0.26 0.35 0.39 0.37 0.35 0.20 0.07 0.03 0.02 0.04 0.07 0.10 0.16
4.86 6.25 8.53 10.92 10.45 9.09 4.92 3.06 3.43 3.85 5.09 4.45 2.13 1.64 2.52 2.11 2.28 2.56 2.89 2.95 3.23 2.54 1.91 1.21 1.46 1.81 1.99 0.77 0.11 0.11 0.16 0.19 0.13 0.05 0.09 0.12 0.10 0.08 0.06 0.06 0.10 0.18 0.33 0.30
6.73 9.49 13.05 14.75 8.79 4.17 4.33 7.22 8.36 8.05 5.39 2.67 1.20 0.85 1.96 2.48 2.72 2.75 3.26 3.05 2.69 2.39 1.21 1.27 1.46 1.12 0.72 0.31 0.27 0.32 0.26 0.16 0.08 0.11 0.13 0.15 0.13 0.16 0.19 0.28 0.35 0.41 0.39 0.26
9.48 12.06 10.90 8.34 5.57 5.10 7.11 9.05 7.91 6.80 4.41 1.69 0.67 0.64 1.55 2.00 2.40 2.32 2.24 2.58 2.33 2.06 1.92 1.58 1.53 1.31 1.34 0.46 0.27 0.12 0.07 0.08 0.12 0.15 0.23 0.24 0.28 0.44 0.53 0.43 0.32 0.26 0.21 0.23
6.86 6.57 7.18 8.01 6.74 7.30 8.39 6.18 4.14 2.55 1.73 0.64 0.41 0.50 1.08 2.11 2.35 2.77 2.42 2.27 2.22 1.62 1.66 2.06 1.40 1.05 0.44 0.20 0.20 0.26 0.23 0.18 0.13 0.19 0.35 0.41 0.45 0.44 0.36 0.31 0.31 0.33 0.35 0.41
4.56 5.13 6.88 7.05 6.68 6.26 4.75 3.05 2.09 1.17 1.08 0.56 0.76 0.95 1.23 1.88 2.52 2.78 1.77 2.00 2.06 1.48 1.83 1.35 1.05 0.96 0.66 0.73 1.03 0.96 0.62 0.35 0.32 0.26 0.27 0.33 0.32 0.27 0.29 0.31 0.35 0.33 0.39 0.52
5.42 5.74 5.66 4.59 4.12 2.44 1.58 0.96 0.85 0.87 0.66 0.56 0.98 0.87 0.94 1.16 1.74 2.09 1.79 1.77 1.55 1.79 1.06 1.28 1.48 1.09 0.90 0.60 0.50 0.43 0.47 0.49 0.51 0.55 0.53 0.51 0.49 0.54 0.59 0.66 0.77 0.72 0.90 1.15
3.87 2.98 2.69 1.92 1.73 1.19 1.01 0.80 0.70 0.64 0.64 0.98 1.41 1.69 1.65 1.61 1.73 1.45 1.23 1.26 1.02 0.83 1.25 1.55 1.09 0.92 0.76 0.63 0.58 0.61 0.68 0.70 0.68 0.69 0.66 0.74 0.75 0.69 0.89 1.08 0.99 0.80 0.81 0.82
1.95 1.72 1.44 1.16 1.06 1.03 0.92 0.92 0.95 0.97 1.28 1.84 2.34 2.26 2.19 1.92 1.08 0.89 0.72 0.68 0.85 1.26 1.15 0.80 0.68 0.65 0.65 0.69 0.74 0.86 0.84 0.73 0.68 0.67 0.62 0.62 0.63 0.57 0.64 0.79 0.79 0.70 0.59 0.61
1.50 1.32 1.10 1.03 0.98 1.01 1.05 1.01 1.09 1.14 1.40 1.84 2.11 1.59 1.24 1.12 0.95 0.83 0.99 1.45 1.62 1.12 0.92 0.87 0.73 0.76 0.82 0.82 0.83 0.86 0.82 0.74 0.67 0.62 0.59 0.61 0.61 0.45 0.31 0.42 0.60 0.47 0.47 0.44